Location: Brienzwiler
(46.7508°N, 8.1014°E)
Time: 08:01:17
(UTC+00:00)

Alouette 2 Rocket - Pass Details

Date: 05 July 2020
Orbit: 502 x 2650 km, 79.8° (Epoch: 05 August)

Event Time Altitude Azimuth Distance (km) Brightness Sun altitude
Rises 19:55:28 0° 356° (N) 2,634 7.6 -5.1°
Reaches altitude 10° 19:57:33 10° 7° (N) 1,805 6.5 -5.4°
Maximum altitude 20:01:02 33° 73° (ENE) 1,046 4.5 -5.8°
Drops below altitude 10° 20:05:28 10° 138° (SE) 2,326 5.8 -6.4°
Enters shadow 20:06:10 - 141° (SE) 2,603 6.1 -6.4°
